User: anonymous   Login
Location: Unspecified
(0.0000°N, 0.0000°E)
Time: 19:40:10
(UTC+00:00)
Language:

Aussat K1 - Orbit

View from above orbital plane
View from above orbital plane
View from above satellite
View from above satellite

Ground track
Ground track

The orbit data is extracted from the following two-line orbital elements,

1 15993U 85076B   18108.36716003 +.00000084 +00000-0 +00000-0 0  9999
2 15993 015.3105 004.0854 0007283 311.2483 235.8498 00.99761964089846
Epoch (UTC): 18 April 2018 08:48:42
Eccentricity: 0.0007283
inclination: 15.3105°
perigee height: 35899 km
apogee height: 35960 km
right ascension of ascending node: 4.0854°
argument of perigee: 311.2483°
revolutions per day: 0.99761964
mean anomaly at epoch: 235.8498°
orbit number at epoch: 8984

The dashed part of the orbit path shows where the satellite is in the earth's shadow,  

DLR